Location: DARK SKY Beskydy - Park tmavé oblohy, www.darkskybeskydy.cz
(49.4926°N, 18.5016°E)
Time: 04:40:44
(UTC+01:00)

N. Korean satellite - Pass Details

Date: 16 December 2022
Orbit: 407 x 441 km, 97.3° (Epoch: 05 February)

Event Time Altitude Azimuth Distance (km) Brightness Sun altitude
Rises 04:21:06 0° 26° (NNE) 2,470 10.5 -30.4°
Enters shadow 04:23:28 10° 43° (NE) 1,612 9.7 -30.0°
Exits shadow 04:27:51 14° 131° (SE) 1,331 9.3 -29.3°
Drops below altitude 10° 04:28:37 10° 142° (SE) 1,544 9.6 -29.2°
Sets 04:30:59 0° 160° (SSE) 2,393 10.4 -28.8°
